McAllen, TX

12:41 AM CDT on July 28, 2017 (GMT -0500)
McAllen Miller International

Weather History for KMFE - January, 2014

Change the Weather History Date:

Monday, January 20, 2014

  Actual Average Record
Temperature  
Mean Temperature 66 °F 61 °F  
Max Temperature 81 °F 71 °F 88 °F (2012)
Min Temperature 51 °F 51 °F 31 °F (1985)
Degree Days  
Heating Degree Days 0 6  
Month to date heating degree days 132 131  
Since 1 July heating degree days 497 368  
Cooling Degree Days 1 2  
Month to date cooling degree days 12 40  
Year to date cooling degree days 12 40  
Growing Degree Days 16 (Base 50)    
Moisture  
Dew Point 56 °F    
Average Humidity 70    
Maximum Humidity 100    
Minimum Humidity 39    
Precipitation  
Precipitation 0.00 in 0.04 in 0.80 in (1994)
Month to date precipitation 0.04 0.66  
Year to date precipitation 0.04 0.66  
Sea Level Pressure  
Sea Level Pressure 30.05 in    
Wind  
Wind Speed 7 mph (SE)    
Max Wind Speed 16 mph    
Max Gust Speed 22 mph    
Visibility 5 miles    
Events Fog    
T = Trace of Precipitation, MM = Missing Value Source: NWS Daily Summary

Daily Weather History Graph

Daily Weather History Graph

Search for Another Location

Airport or City:

Trip Planner

Search our weather history database for the weather conditions in past years. The results will help you decide how hot, cold, wet, or windy it might be!

Date:

Astronomy

Jan. 20, 2014 Rise Set
Actual Time 7:21 AM CST 6:06 PM CST
Civil Twilight 6:56 AM CST 6:31 PM CST
Nautical Twilight 6:28 AM CST 6:59 PM CST
Astronomical Twilight 6:00 AM CST 7:27 PM CST
Moon 10:12 PM CST (1/20) 9:49 AM CST (1/20)
Length of Visible Light 11h 34m
Length of Day
10h 45m
Waning Gibbous, 82% of the Moon is Illuminated
Jan 20
Waning Gibbous
Jan 23
Last Quarter
Jan 30
New
Feb 6
First Quarter
Feb 14
Full

Hourly Weather History & Observations

Time (CST) Temp. Heat Index Dew Point Humidity Pressure Visibility Wind Dir Wind Speed Gust Speed Precip Events Conditions
12:29 AM 59.0 °F - 57.2 °F 94% 30.14 in 10.0 mi SSE 5.8 mph - N/A   Scattered Clouds
12:38 AM 59.0 °F - 57.2 °F 94% 30.14 in 10.0 mi SSE 4.6 mph - N/A   Mostly Cloudy
12:53 AM 59.0 °F - 57.9 °F 96% 30.13 in 4.0 mi SSE 5.8 mph - N/A   Overcast
12:58 AM 59.0 °F - 57.2 °F 94% 30.13 in 1.8 mi SSE 5.8 mph - N/A   Overcast
1:09 AM 59.0 °F - 57.2 °F 94% 30.13 in 0.8 mi SSE 5.8 mph - N/A   Mist
1:29 AM 57.2 °F - 57.2 °F 100% 30.12 in 1.0 mi SSE 4.6 mph - N/A   Mist
1:41 AM 57.2 °F - 57.2 °F 100% 30.11 in 0.5 mi SE 4.6 mph - N/A Fog Fog
1:53 AM 57.9 °F - 57.0 °F 97% 30.11 in 0.2 mi SSE 4.6 mph - N/A Fog Fog
2:08 AM 57.2 °F - 57.2 °F 100% 30.11 in 0.5 mi SE 3.5 mph - N/A Fog Fog
2:53 AM 57.0 °F - 57.0 °F 100% 30.08 in 0.5 mi SSE 4.6 mph - N/A Fog Fog
3:53 AM 57.0 °F - 57.0 °F 100% 30.07 in 0.5 mi SSE 5.8 mph - N/A Fog Fog
4:53 AM 55.9 °F - 55.9 °F 100% 30.06 in 0.5 mi ESE 5.8 mph - N/A Fog Fog
5:30 AM 53.6 °F - 53.6 °F 100% 30.06 in 1.0 mi SE 4.6 mph - N/A   Mist
5:42 AM 53.6 °F - 53.6 °F 100% 30.06 in 0.8 mi SE 4.6 mph - N/A   Mist
5:53 AM 53.1 °F - 53.1 °F 100% 30.06 in 0.8 mi SE 4.6 mph - N/A   Mist
6:06 AM 53.6 °F - 53.6 °F 100% 30.06 in 1.2 mi SE 4.6 mph - N/A   Overcast
6:20 AM 53.6 °F - 53.6 °F 100% 30.06 in 0.5 mi SE 3.5 mph - N/A Fog Fog
6:42 AM 53.6 °F - 53.6 °F 100% 30.06 in 1.0 mi SE 3.5 mph - N/A   Mist
6:50 AM 53.6 °F - 53.6 °F 100% 30.07 in 0.8 mi SE 3.5 mph - N/A   Mist
6:53 AM 53.1 °F - 53.1 °F 100% 30.07 in 0.8 mi SE 3.5 mph - N/A   Mist
7:11 AM 53.6 °F - 51.8 °F 94% 30.07 in 1.0 mi SE 3.5 mph - N/A   Mist
7:16 AM 53.6 °F - 51.8 °F 94% 30.07 in 1.2 mi SE 4.6 mph - N/A   Scattered Clouds
7:27 AM 51.8 °F - 51.8 °F 100% 30.07 in 1.0 mi SE 5.8 mph - N/A   Mist
7:32 AM 51.8 °F - 51.8 °F 100% 30.07 in 0.8 mi ESE 5.8 mph - N/A   Clear
7:41 AM 51.8 °F - 51.8 °F 100% 30.06 in 2.5 mi SE 6.9 mph - N/A   Clear
7:48 AM 53.6 °F - 51.8 °F 94% 30.06 in 4.0 mi SE 6.9 mph - N/A   Clear
7:53 AM 53.1 °F - 52.0 °F 96% 30.06 in 4.0 mi SSE 6.9 mph - N/A   Clear
8:53 AM 59.0 °F - 57.0 °F 93% 30.07 in 10.0 mi SSE 9.2 mph - N/A   Clear
9:53 AM 64.9 °F - 57.0 °F 75% 30.08 in 10.0 mi SSE 15.0 mph - N/A   Clear
10:53 AM 70.0 °F - 57.9 °F 65% 30.07 in 10.0 mi South 9.2 mph - N/A   Clear
11:53 AM 73.9 °F - 57.0 °F 55% 30.04 in 10.0 mi SSE 16.1 mph 21.9 mph N/A   Clear
12:53 PM 75.0 °F - 57.9 °F 55% 30.00 in 10.0 mi South 10.4 mph - N/A   Clear
1:53 PM 78.1 °F - 55.9 °F 46% 29.95 in 10.0 mi South 6.9 mph - N/A   Clear
2:53 PM 79.0 °F - 55.9 °F 45% 29.93 in 10.0 mi SSE 6.9 mph - N/A   Clear
3:53 PM 80.1 °F 80.0 °F 54.0 °F 40% 29.92 in 10.0 mi SW 5.8 mph - N/A   Clear
4:53 PM 79.0 °F - 57.9 °F 48% 29.92 in 10.0 mi South 6.9 mph - N/A   Clear
5:53 PM 75.0 °F - 59.0 °F 57% 29.94 in 10.0 mi SSE 5.8 mph - N/A   Clear
6:53 PM 68.0 °F - 59.0 °F 73% 29.96 in 10.0 mi SE 5.8 mph - N/A   Clear
7:53 PM 64.9 °F - 59.0 °F 81% 29.99 in 10.0 mi ESE 5.8 mph - N/A   Clear
8:53 PM 63.0 °F - 57.9 °F 84% 30.01 in 10.0 mi ESE 4.6 mph - N/A   Clear
9:53 PM 61.0 °F - 57.9 °F 90% 30.02 in 10.0 mi SE 5.8 mph - N/A   Clear
10:53 PM 60.1 °F - 57.9 °F 93% 30.03 in 10.0 mi SE 3.5 mph - N/A   Clear
11:53 PM 59.0 °F - 57.0 °F 93% 30.04 in 10.0 mi Calm Calm - N/A   Clear